• In Deutschland
  • Länderverzeichnis
  • Für 7 Tage
  • Wassertemperatur
  • Satellitenkarten
  • Wetterkarte
  • Widgets
  • user-avatar
    Anmelden

    Stündliche Wetter San Miguel de Tucumán

    Heute, 22 September, Freitag

    Zeit Temperatur Niederschläge Wind Luftdruck Luftfeuchtigkeit
    00:00 +15°C° 0 mm 1 m/S 724 mmHg 76%
    01:00 +15°C° 0 mm 1 m/S 723 mmHg 76%
    02:00 +15°C° 0 mm 1 m/S 723 mmHg 77%
    03:00 +14°C° 0 mm 1 m/S 723 mmHg 78%
    04:00 +14°C° 0 mm 1 m/S 723 mmHg 79%
    05:00 +14°C° 0 mm 1 m/S 722 mmHg 81%
    06:00 +15°C° 0 mm 1 m/S 723 mmHg 76%
    07:00 +16°C° 0 mm 1 m/S 723 mmHg 71%
    08:00 +18°C° 0 mm 1 m/S 723 mmHg 66%
    09:00 +20°C° 0 mm 1 m/S 723 mmHg 60%
    10:00 +21°C° 0 mm 2 m/S 724 mmHg 53%
    11:00 +24°C° 0 mm 2 m/S 724 mmHg 46%
    12:00 +25°C° 0 mm 2 m/S 723 mmHg 44%
    13:00 +26°C° 0 mm 2 m/S 723 mmHg 41%
    14:00 +26°C° 0 mm 2 m/S 722 mmHg 39%
    15:00 +26°C° 0 mm 2 m/S 722 mmHg 39%
    16:00 +26°C° 0 mm 2 m/S 722 mmHg 40%
    17:00 +25°C° 0 mm 2 m/S 722 mmHg 40%
    18:00 +23°C° 0 mm 1 m/S 722 mmHg 45%
    19:00 +22°C° 0 mm 1 m/S 723 mmHg 50%
    20:00 +18°C° 0 mm 0 m/S 723 mmHg 55%
    21:00 +18°C° 0 mm 0 m/S 724 mmHg 56%
    22:00 +17°C° 0 mm 0 m/S 724 mmHg 57%
    23:00 +17°C° 0 mm 0 m/S 724 mmHg 58%

    Morgen, 23 September, Samstag

    Zeit Temperatur Niederschläge Wind Luftdruck Luftfeuchtigkeit
    00:00 +18°C° 0 mm 1 m/S 724 mmHg 59%
    01:00 +18°C° 0 mm 1 m/S 724 mmHg 60%
    02:00 +18°C° 0 mm 1 m/S 724 mmHg 61%
    03:00 +16°C° 0 mm 1 m/S 724 mmHg 62%
    04:00 +16°C° 0 mm 1 m/S 723 mmHg 64%
    05:00 +16°C° 0 mm 1 m/S 723 mmHg 65%
    06:00 +18°C° 0 mm 1 m/S 724 mmHg 61%
    07:00 +20°C° 0 mm 1 m/S 724 mmHg 56%
    08:00 +21°C° 0 mm 1 m/S 725 mmHg 52%
    09:00 +23°C° 0 mm 2 m/S 725 mmHg 48%
    10:00 +25°C° 0 mm 2 m/S 725 mmHg 44%
    11:00 +27°C° 0 mm 2 m/S 725 mmHg 40%
    12:00 +28°C° 0 mm 3 m/S 724 mmHg 38%
    13:00 +29°C° 0 mm 3 m/S 723 mmHg 36%
    14:00 +29°C° 0 mm 3 m/S 722 mmHg 34%
    15:00 +29°C° 0 mm 3 m/S 721 mmHg 34%
    16:00 +28°C° 0 mm 3 m/S 721 mmHg 35%
    17:00 +28°C° 0 mm 3 m/S 720 mmHg 36%
    18:00 +26°C° 0 mm 2 m/S 721 mmHg 40%
    19:00 +24°C° 0 mm 2 m/S 721 mmHg 43%
    20:00 +22°C° 0 mm 1 m/S 721 mmHg 47%
    21:00 +22°C° 0 mm 1 m/S 721 mmHg 49%
    22:00 +21°C° 0 mm 1 m/S 721 mmHg 51%
    23:00 +21°C° 0 mm 1 m/S 721 mmHg 53%

    übermorgen, 24 September, Sonntag

    Zeit Temperatur Niederschläge Wind Luftdruck Luftfeuchtigkeit
    00:00 +21°C° 0 mm 1 m/S 721 mmHg 54%
    01:00 +20°C° 0 mm 1 m/S 720 mmHg 56%
    02:00 +20°C° 0 mm 1 m/S 720 mmHg 57%
    03:00 +20°C° 0 mm 1 m/S 719 mmHg 59%
    04:00 +19°C° 0 mm 1 m/S 719 mmHg 60%
    05:00 +19°C° 0 mm 1 m/S 719 mmHg 62%
    06:00 +20°C° 0 mm 1 m/S 719 mmHg 58%
    07:00 +22°C° 0 mm 1 m/S 720 mmHg 54%
    08:00 +23°C° 0 mm 1 m/S 720 mmHg 50%
    09:00 +26°C° 0 mm 2 m/S 720 mmHg 44%
    10:00 +28°C° 0 mm 2 m/S 720 mmHg 39%
    11:00 +31°C° 0 mm 3 m/S 720 mmHg 33%
    12:00 +33°C° 0 mm 3 m/S 719 mmHg 31%
    13:00 +34°C° 0 mm 3 m/S 718 mmHg 30%
    14:00 +35°C° 0 mm 3 m/S 717 mmHg 28%
    15:00 +35°C° 0 mm 3 m/S 717 mmHg 29%
    16:00 +34°C° 0 mm 3 m/S 717 mmHg 31%
    17:00 +34°C° 0 mm 3 m/S 717 mmHg 32%
    18:00 +31°C° 0 mm 2 m/S 717 mmHg 38%
    19:00 +29°C° 0 mm 2 m/S 718 mmHg 44%
    20:00 +26°C° 0 mm 1 m/S 719 mmHg 50%
    21:00 +26°C° 0 mm 1 m/S 719 mmHg 51%
    22:00 +26°C° 0 mm 1 m/S 719 mmHg 52%
    23:00 +25°C° 0 mm 1 m/S 720 mmHg 54%

    25 September, Montag

    Zeit Temperatur Niederschläge Wind Luftdruck Luftfeuchtigkeit
    00:00 +25°C° 0 mm 1 m/S 719 mmHg 55%
    01:00 +24°C° 0 mm 1 m/S 719 mmHg 56%
    02:00 +24°C° 0 mm 1 m/S 719 mmHg 57%
    03:00 +24°C° 0 mm 1 m/S 719 mmHg 58%
    04:00 +23°C° 0 mm 1 m/S 719 mmHg 58%
    05:00 +23°C° 0 mm 1 m/S 719 mmHg 58%
    06:00 +24°C° 0,1 mm 1 m/S 720 mmHg 55%
    07:00 +25°C° 0,1 mm 1 m/S 720 mmHg 52%
    08:00 +27°C° 0,1 mm 1 m/S 721 mmHg 49%
    09:00 +28°C° 0,1 mm 2 m/S 721 mmHg 46%
    10:00 +30°C° 0,1 mm 2 m/S 722 mmHg 42%
    11:00 +32°C° 0,1 mm 2 m/S 722 mmHg 39%
    12:00 +34°C° 0 mm 2 m/S 721 mmHg 37%
    13:00 +35°C° 0 mm 2 m/S 721 mmHg 35%
    14:00 +35°C° 0 mm 2 m/S 720 mmHg 34%
    15:00 +35°C° 0,1 mm 2 m/S 720 mmHg 35%
    16:00 +33°C° 0,1 mm 1 m/S 720 mmHg 37%
    17:00 +33°C° 0,1 mm 1 m/S 720 mmHg 38%
    18:00 +31°C° 0,4 mm 1 m/S 721 mmHg 44%
    19:00 +29°C° 0,4 mm 1 m/S 721 mmHg 50%
    20:00 +27°C° 0,4 mm 1 m/S 722 mmHg 56%
    21:00 +27°C° 0,4 mm 1 m/S 722 mmHg 58%
    22:00 +26°C° 0,4 mm 1 m/S 722 mmHg 60%
    23:00 +26°C° 0,4 mm 1 m/S 722 mmHg 62%

    26 September, Dienstag

    Zeit Temperatur Niederschläge Wind Luftdruck Luftfeuchtigkeit
    00:00 +25°C° 0 mm 1 m/S 722 mmHg 64%
    01:00 +25°C° 0 mm 1 m/S 721 mmHg 66%
    02:00 +24°C° 0 mm 1 m/S 721 mmHg 68%
    03:00 +24°C° 0 mm 1 m/S 721 mmHg 70%
    04:00 +24°C° 0 mm 1 m/S 721 mmHg 71%
    05:00 +24°C° 0 mm 1 m/S 720 mmHg 72%
    06:00 +25°C° 0 mm 1 m/S 721 mmHg 70%
    07:00 +26°C° 0 mm 1 m/S 721 mmHg 67%
    08:00 +27°C° 0 mm 1 m/S 721 mmHg 64%
    09:00 +28°C° 0 mm 1 m/S 721 mmHg 58%
    10:00 +30°C° 0 mm 2 m/S 721 mmHg 53%
    11:00 +32°C° 0 mm 2 m/S 721 mmHg 47%
    12:00 +32°C° 0,1 mm 2 m/S 720 mmHg 46%
    13:00 +32°C° 0,1 mm 2 m/S 719 mmHg 45%
    14:00 +34°C° 0,1 mm 2 m/S 718 mmHg 44%
    15:00 +32°C° 0,1 mm 2 m/S 718 mmHg 46%
    16:00 +32°C° 0,1 mm 2 m/S 717 mmHg 48%
    17:00 +31°C° 0,1 mm 2 m/S 717 mmHg 49%
    18:00 +30°C° 0,5 mm 2 m/S 718 mmHg 55%
    19:00 +28°C° 0,5 mm 2 m/S 718 mmHg 61%
    20:00 +27°C° 0,5 mm 2 m/S 719 mmHg 67%
    21:00 +27°C° 1,3 mm 2 m/S 719 mmHg 69%
    22:00 +26°C° 1,3 mm 2 m/S 719 mmHg 71%
    23:00 +25°C° 1,3 mm 2 m/S 720 mmHg 74%

    27 September, Mittwoch

    Zeit Temperatur Niederschläge Wind Luftdruck Luftfeuchtigkeit
    00:00 +25°C° 0,8 mm 2 m/S 720 mmHg 77%
    01:00 +24°C° 0,8 mm 2 m/S 720 mmHg 79%
    02:00 +24°C° 0,8 mm 2 m/S 720 mmHg 82%
    03:00 +23°C° 0,1 mm 2 m/S 720 mmHg 85%
    04:00 +23°C° 0,1 mm 2 m/S 720 mmHg 87%
    05:00 +23°C° 0,1 mm 2 m/S 720 mmHg 89%
    06:00 +23°C° 0,2 mm 2 m/S 720 mmHg 87%
    07:00 +23°C° 0,2 mm 2 m/S 721 mmHg 85%
    08:00 +24°C° 0,2 mm 2 m/S 722 mmHg 83%
    09:00 +24°C° 0,6 mm 2 m/S 721 mmHg 83%
    10:00 +24°C° 0,6 mm 2 m/S 721 mmHg 84%
    11:00 +24°C° 0,6 mm 2 m/S 721 mmHg 84%
    12:00 +24°C° 0,3 mm 2 m/S 721 mmHg 85%
    13:00 +24°C° 0,3 mm 2 m/S 721 mmHg 85%
    14:00 +24°C° 0,3 mm 2 m/S 720 mmHg 85%
    15:00 +23°C° 0,5 mm 2 m/S 720 mmHg 86%
    16:00 +23°C° 0,5 mm 2 m/S 720 mmHg 87%
    17:00 +23°C° 0,5 mm 2 m/S 720 mmHg 87%
    18:00 +23°C° 0,4 mm 2 m/S 720 mmHg 89%
    19:00 +21°C° 0,4 mm 2 m/S 721 mmHg 91%
    20:00 +21°C° 0,4 mm 2 m/S 721 mmHg 94%
    21:00 +21°C° 0,2 mm 1 m/S 721 mmHg 93%
    22:00 +21°C° 0,2 mm 1 m/S 721 mmHg 93%
    23:00 +21°C° 0,2 mm 1 m/S 721 mmHg 93%
    Mehr zeigen